Hourly Data Report for September 27, 2017

All times are specified in Local Standard Time (LST). Add 1 hour to adjust for Daylight Saving Time where and when it is observed.

ST. STEPHEN
NEW BRUNSWICK

45°12'36.600" N
67°15'10.300" W
26.10 m
8104935
71607
WSS

Download Data

Hourly Data (September 2017)
Hourly Data Report for September 27, 2017
Temp Definition
°C
Dew Point Temp Definition
°C
Rel Hum Definition
%
Wind Dir Definition
10's deg

Wind Spd Definition
km/h
Visibility Definition
km
Stn Press Definition
kPa
Hmdx Definition


Wind Chill Definition


Weather Definition


TIME
00:00 19.7 17.3 86 8 6   101.18     LegendNANA
01:00 18.5 15.2 81 6 9   101.19     LegendNANA
02:00 16.7 14.9 89 12 6   101.21     LegendNANA
03:00 16.6 15.2 92 11 6   101.17     LegendNANA
04:00 16.4 15.0 91 10 5   101.15     LegendNANA
05:00 16.2 14.8 92 12 5   101.13     LegendNANA
06:00 15.9 15.0 94 11 3   101.08     LegendNANA
07:00 15.7 14.9 95 8 4   101.10     LegendNANA
08:00 15.9 15.2 96 13 8   101.09     LegendNANA
09:00 15.9 15.0 94 11 10   101.08     LegendNANA
10:00 16.8 15.0 89 12 9   101.04     LegendNANA
11:00 18.1 15.8 87 10 7   100.96     LegendNANA
12:00 20.4 17.4 83 14 5   100.90 26   LegendNANA
13:00 24.3 18.7 71 14 9   100.79 31   LegendNANA
14:00 25.3 19.0 68 19 12   100.68 32   LegendNANA
15:00 24.8 19.0 70 18 12   100.62 32   LegendNANA
16:00 26.9 19.7 65 17 10   100.52 34   LegendNANA
17:00 25.5 18.8 66 16 12   100.42 32   LegendNANA
18:00 23.3 18.6 75 16 9   100.41 30   LegendNANA
19:00 20.3 17.0 81 17 10   100.44 26   LegendNANA
20:00 19.3 17.4 89 16 7   100.38     LegendNANA
21:00 21.1 19.4 90 20 14   100.35 28   LegendNANA
22:00 21.6 19.8 89 21 12   100.29 29   LegendNANA
23:00 21.5 19.7 90 20 9   100.23 29   LegendNANA

Notes on Data Quality.

Legend

  • E = Estimated
  • M = Missing
  • NA = Not Available
  • ‡ = Partner data that is not subject to review by the National Climate Archives
Date modified: